Content
SEND FEEDBACK

Daily
Averages
Monthly
Summary
United States of America

COREY, LOUISIANA


Home > North America > United States > Louisiana
Elevation: 80 feet     Latitude: 32 11N     Longitude: 092 06W

WEATHER
 
SELECT A DAY
Number of Records: 167,530;   Date Range: 1/1/95 - 7/26/14
 
SHARE

PRINT THIS DATA

[ ← Previous Day ]
WEATHER ALMANAC - JANUARY 31, 2013
[ Next Day → ]
[ °C ]   °F
Weather ElementAverageHighLow
Temperature47.1 °F62.1 °F (2:53 pm)33.1 °F (4:53 am)
Dewpoint28.7 °F33.1 °F (8:53 am)25 °F (2:53 pm)
Humidity53.6 %85 % (6:53 am)24 % (2:53 pm)
Barometer30.22 in30.29 in (11:53 pm)30.17 in (1:53 am)
Wind Speed7.4 mph13.8 mph (11:53 am)
Wind Gust19.6 mph (2:53 pm)
Weather ElementAverage
Visibility10 mi
Wind DirectionSSW (199.1 °)

Weather ElementTotal
Precipitation---
Heating Degree Days17.4 (Base 65)
Averaged from 23 records on January 31, 2013
WEATHER CONDITIONS BREAKOUT
WIND DIRECTION BREAKOUT
WEATHER BY HOUR - JANUARY 31, 2013
[ °C ]   °F
Local TimeTemperatureDewpointHumidityBarometerVisibilityWind DirectionWind SpeedGust SpeedPrecipitationEventsConditions
1:53 AM36.0 °F28.9 °F76 %30.17 in10.0 miSSW (200°)3.5 mphClear
2:53 AM35.1 °F28.0 °F76 %30.18 in10.0 miSSW (210°)5.8 mphClear
3:53 AM34.0 °F28.9 °F82 %30.19 in10.0 miSW (220°)4.6 mphClear
4:53 AM33.1 °F28.0 °F82 %30.20 in10.0 miSSW (210°)4.6 mphClear
5:53 AM34.0 °F28.0 °F79 %30.18 in10.0 miCalmClear
6:53 AM33.1 °F28.9 °F85 %30.20 in10.0 miCalmClear
7:53 AM35.1 °F30.0 °F82 %30.24 in10.0 miSouth (190°)5.8 mphClear
8:53 AM41.0 °F33.1 °F73 %30.26 in10.0 miSW (220°)6.9 mphClear
9:53 AM48.9 °F33.1 °F54 %30.27 in10.0 miSW (230°)8.1 mphClear
10:53 AM54.0 °F28.9 °F38 %30.27 in10.0 miSW (230°)12.7 mphClear
11:53 AM57.0 °F27.0 °F32 %30.25 in10.0 miWSW (240°)13.8 mphClear
12:53 PM59.0 °F27.0 °F29 %30.23 in10.0 miSW (230°)11.5 mph17.3 mphClear
1:53 PM61.0 °F26.1 °F26 %30.20 in10.0 miSW (220°)11.5 mph18.4 mphClear
2:53 PM62.1 °F25.0 °F24 %30.19 in10.0 miWSW (250°)11.5 mph19.6 mphClear
3:53 PM61.0 °F27.0 °F27 %30.18 in10.0 miSW (220°)12.7 mphClear
4:53 PM59.0 °F27.0 °F29 %30.18 in10.0 miSW (220°)13.8 mphClear
5:53 PM53.1 °F28.0 °F38 %30.19 in10.0 miSSW (200°)8.1 mphClear
6:53 PM51.1 °F28.9 °F43 %30.19 in10.0 miSSW (210°)5.8 mphClear
7:53 PM48.0 °F28.9 °F48 %30.23 in10.0 miSW (220°)6.9 mphClear
8:53 PM48.9 °F28.0 °F44 %30.26 in10.0 miSSW (210°)3.5 mphClear
9:53 PM46.9 °F28.0 °F48 %30.28 in10.0 miSW (220°)3.5 mphClear
10:53 PM46.0 °F30.0 °F54 %30.28 in10.0 miSSW (210°)5.8 mphClear
11:53 PM45.0 °F33.1 °F63 %30.29 in10.0 miSW (220°)10.4 mphClear
Hourly data recorded from KMLU, located miles away from Corey, Louisiana







STORIES FROM OUR PARTNERS